Time,TemperatureF,DewpointF,PressureIn,WindDirection,WindDirectionDegrees,WindSpeedMPH,WindSpeedGustMPH,Humidity,HourlyPrecipIn,Conditions,Clouds,dailyrainin,SoftwareType,DateUTC
2013-02-16 00:00:00,37.8,27.5,29.92,NNW,329,0.0,0.0,66,0.00,,SKC,0.02,VWS V14.01,2013-02-16 05:00:00,
2013-02-16 00:05:00,37.5,27.9,29.92,NNW,328,0.0,0.0,68,0.00,,SKC,0.00,VWS V14.01,2013-02-16 05:05:00,
2013-02-16 00:10:00,37.2,27.6,29.92,West,275,0.0,0.0,68,0.00,,SKC,0.00,VWS V14.01,2013-02-16 05:10:00,
2013-02-16 00:15:00,37.0,27.4,29.92,West,275,0.0,0.0,68,0.00,,SKC,0.00,VWS V14.01,2013-02-16 05:15:00,
2013-02-16 00:20:00,36.9,27.3,29.92,WNW,283,0.0,0.0,68,0.00,,SKC,0.00,VWS V14.01,2013-02-16 05:20:00,
2013-02-16 00:23:00,36.9,27.0,29.92,WNW,285,0.0,0.0,67,0.00,,SKC,0.00,VWS V14.01,2013-02-16 05:23:00,
2013-02-16 00:28:00,36.8,26.5,29.92,West,260,0.0,0.0,66,0.00,,SKC,0.00,VWS V14.01,2013-02-16 05:28:00,
2013-02-16 00:33:00,36.8,26.9,29.92,WNW,300,0.0,0.0,67,0.00,,SKC,0.00,VWS V14.01,2013-02-16 05:33:00,
2013-02-16 00:38:00,36.6,26.7,29.92,WNW,283,0.0,0.0,67,0.00,,SKC,0.00,VWS V14.01,2013-02-16 05:38:00,
2013-02-16 00:43:00,36.5,26.6,29.92,NE,42,0.0,0.0,67,0.00,,SKC,0.00,VWS V14.01,2013-02-16 05:43:00,
2013-02-16 00:48:00,36.5,26.6,29.92,West,272,0.0,0.0,67,0.00,,SKC,0.00,VWS V14.01,2013-02-16 05:48:00,
2013-02-16 00:53:00,36.3,25.7,29.92,West,262,0.0,0.0,65,0.00,,SKC,0.00,VWS V14.01,2013-02-16 05:53:00,
2013-02-16 00:58:00,36.3,24.9,29.92,WSW,257,0.0,0.0,63,0.00,,SKC,0.00,VWS V14.01,2013-02-16 05:58:00,
2013-02-16 01:03:00,36.2,25.2,29.92,WSW,257,0.0,0.0,64,0.00,,SKC,0.00,VWS V14.01,2013-02-16 06:03:00,
2013-02-16 01:08:00,36.0,25.0,29.92,WSW,257,0.0,0.0,64,0.00,,SKC,0.00,VWS V14.01,2013-02-16 06:08:00,
2013-02-16 01:13:00,35.9,25.7,29.92,West,268,0.0,0.0,66,0.00,,SKC,0.00,VWS V14.01,2013-02-16 06:13:00,
2013-02-16 01:18:00,35.8,24.5,29.92,North,352,0.0,0.0,63,0.00,,SKC,0.00,VWS V14.01,2013-02-16 06:18:00,
2013-02-16 01:23:00,35.6,25.0,29.92,WNW,294,0.0,0.0,65,0.00,,SKC,0.00,VWS V14.01,2013-02-16 06:23:00,
2013-02-16 01:28:00,35.8,23.7,29.92,North,351,0.0,0.0,61,0.00,,SKC,0.00,VWS V14.01,2013-02-16 06:28:00,
2013-02-16 01:33:00,35.8,23.7,29.91,WNW,300,0.0,0.0,61,0.00,,SKC,0.00,VWS V14.01,2013-02-16 06:33:00,
2013-02-16 01:38:00,35.8,23.7,29.91,NW,308,0.0,0.0,61,0.00,,SKC,0.00,VWS V14.01,2013-02-16 06:38:00,
2013-02-16 01:43:00,35.8,24.1,29.91,WNW,296,0.0,0.0,62,0.00,,SKC,0.00,VWS V14.01,2013-02-16 06:43:00,
2013-02-16 01:48:00,35.6,23.9,29.90,North,1,0.0,0.0,62,0.00,,SKC,0.00,VWS V14.01,2013-02-16 06:48:00,
2013-02-16 01:53:00,35.6,24.3,29.90,NW,326,0.0,0.0,63,0.00,,SKC,0.00,VWS V14.01,2013-02-16 06:53:00,
2013-02-16 01:58:00,35.5,23.8,29.90,NW,313,0.0,0.0,62,0.00,,SKC,0.00,VWS V14.01,2013-02-16 06:58:00,
2013-02-16 02:03:00,35.5,23.4,29.89,North,1,0.0,0.0,61,0.00,,SKC,0.00,VWS V14.01,2013-02-16 07:03:00,
2013-02-16 02:08:00,35.6,23.9,29.89,North,8,0.0,0.0,62,0.00,,SKC,0.00,VWS V14.01,2013-02-16 07:08:00,
2013-02-16 02:13:00,35.5,23.4,29.89,NNW,340,0.0,0.0,61,0.00,,SKC,0.00,VWS V14.01,2013-02-16 07:13:00,
2013-02-16 02:18:00,35.3,23.6,29.89,NNW,348,0.0,0.0,62,0.00,,SKC,0.00,VWS V14.01,2013-02-16 07:18:00,
2013-02-16 02:23:00,35.3,23.2,29.89,NNW,348,0.0,0.0,61,0.00,,SKC,0.00,VWS V14.01,2013-02-16 07:23:00,
2013-02-16 02:28:00,35.2,23.5,29.89,NNW,348,0.0,0.0,62,0.00,,SKC,0.00,VWS V14.01,2013-02-16 07:28:00,
2013-02-16 02:33:00,35.0,22.9,29.89,NW,305,0.0,0.0,61,0.00,,SKC,0.00,VWS V14.01,2013-02-16 07:33:00,
2013-02-16 02:38:00,35.2,23.1,29.89,West,281,0.0,0.0,61,0.00,,SKC,0.00,VWS V14.01,2013-02-16 07:38:00,
2013-02-16 02:43:00,35.0,22.5,29.89,West,281,0.0,0.0,60,0.00,,SKC,0.00,VWS V14.01,2013-02-16 07:43:00,
2013-02-16 02:48:00,35.2,23.9,29.89,ESE,108,0.0,0.0,63,0.00,,SKC,0.00,VWS V14.01,2013-02-16 07:48:00,
2013-02-16 02:53:00,35.2,22.3,29.89,ENE,65,0.0,0.0,59,0.00,,SKC,0.00,VWS V14.01,2013-02-16 07:53:00,
2013-02-16 02:58:00,35.3,22.8,29.89,East,94,0.0,0.0,60,0.00,,SKC,0.00,VWS V14.01,2013-02-16 07:58:00,
2013-02-16 03:03:00,35.2,22.7,29.89,WSW,246,0.0,0.0,60,0.00,,SKC,0.00,VWS V14.01,2013-02-16 08:03:00,
2013-02-16 03:08:00,35.2,22.3,29.89,WSW,250,0.0,0.0,59,0.00,,SKC,0.00,VWS V14.01,2013-02-16 08:08:00,
2013-02-16 03:13:00,35.2,22.7,29.89,NW,319,0.0,0.0,60,0.00,,SKC,0.00,VWS V14.01,2013-02-16 08:13:00,
2013-02-16 03:18:00,35.2,21.9,29.88,WNW,292,0.0,0.0,58,0.00,,SKC,0.00,VWS V14.01,2013-02-16 08:18:00,
2013-02-16 03:23:00,35.2,22.3,29.88,West,277,0.0,0.0,59,0.00,,SKC,0.00,VWS V14.01,2013-02-16 08:23:00,
2013-02-16 03:28:00,35.2,21.9,29.88,West,276,0.0,0.0,58,0.00,,SKC,0.00,VWS V14.01,2013-02-16 08:28:00,
2013-02-16 03:33:00,35.2,22.3,29.88,West,276,0.0,0.0,59,0.00,,SKC,0.00,VWS V14.01,2013-02-16 08:33:00,
2013-02-16 03:38:00,35.0,22.1,29.88,North,350,0.0,0.0,59,0.00,,SKC,0.00,VWS V14.01,2013-02-16 08:38:00,
2013-02-16 03:43:00,35.0,22.1,29.88,NW,322,0.0,0.0,59,0.00,,SKC,0.00,VWS V14.01,2013-02-16 08:43:00,
2013-02-16 03:48:00,34.9,21.6,29.88,NW,306,0.0,0.0,58,0.00,,SKC,0.00,VWS V14.01,2013-02-16 08:48:00,
2013-02-16 03:53:00,35.0,21.7,29.88,West,271,0.0,0.0,58,0.00,,SKC,0.00,VWS V14.01,2013-02-16 08:53:00,
2013-02-16 03:58:00,35.2,21.9,29.88,WNW,295,0.0,0.0,58,0.00,,SKC,0.00,VWS V14.01,2013-02-16 08:58:00,
2013-02-16 04:02:00,35.0,21.7,29.88,WNW,291,0.0,0.0,58,0.00,,SKC,0.00,VWS V14.01,2013-02-16 09:02:00,
2013-02-16 04:07:00,35.0,21.7,29.88,WNW,291,0.0,0.0,58,0.00,,SKC,0.00,VWS V14.01,2013-02-16 09:07:00,
2013-02-16 04:12:00,34.9,21.6,29.88,WNW,297,0.0,0.0,58,0.00,,SKC,0.00,VWS V14.01,2013-02-16 09:12:00,
2013-02-16 04:17:00,34.9,21.6,29.88,WNW,297,0.0,0.0,58,0.00,,SKC,0.00,VWS V14.01,2013-02-16 09:17:00,
2013-02-16 04:22:00,34.9,21.6,29.88,NW,321,0.0,0.0,58,0.00,,SKC,0.00,VWS V14.01,2013-02-16 09:22:00,
2013-02-16 04:27:00,34.9,22.0,29.88,WNW,295,0.0,0.0,59,0.00,,SKC,0.00,VWS V14.01,2013-02-16 09:27:00,
2013-02-16 04:32:00,34.9,21.6,29.88,WSW,255,0.0,0.0,58,0.00,,SKC,0.00,VWS V14.01,2013-02-16 09:32:00,
2013-02-16 04:37:00,34.9,21.6,29.88,WSW,255,0.0,0.0,58,0.00,,SKC,0.00,VWS V14.01,2013-02-16 09:37:00,
2013-02-16 04:42:00,34.9,21.6,29.88,WSW,255,0.0,0.0,58,0.00,,SKC,0.00,VWS V14.01,2013-02-16 09:42:00,
2013-02-16 04:47:00,34.7,21.5,29.88,WSW,249,0.0,0.0,58,0.00,,SKC,0.00,VWS V14.01,2013-02-16 09:47:00,
2013-02-16 04:52:00,34.7,21.0,29.88,West,269,0.0,0.0,57,0.00,,SKC,0.00,VWS V14.01,2013-02-16 09:52:00,
2013-02-16 04:57:00,34.7,21.9,29.88,West,263,0.0,0.0,59,0.00,,SKC,0.00,VWS V14.01,2013-02-16 09:57:00,
2013-02-16 05:02:00,34.6,22.2,29.88,West,260,0.0,0.0,60,0.00,,SKC,0.00,VWS V14.01,2013-02-16 10:02:00,
2013-02-16 05:07:00,34.6,21.0,29.88,WNW,302,0.0,0.0,57,0.00,,SKC,0.00,VWS V14.01,2013-02-16 10:07:00,
2013-02-16 05:12:00,34.6,21.4,29.88,WNW,302,0.0,0.0,58,0.00,,SKC,0.00,VWS V14.01,2013-02-16 10:12:00,
2013-02-16 05:17:00,34.4,21.6,29.89,WNW,302,0.0,0.0,59,0.00,,SKC,0.00,VWS V14.01,2013-02-16 10:17:00,
2013-02-16 05:22:00,34.3,21.5,29.89,WNW,302,0.0,0.0,59,0.00,,SKC,0.00,VWS V14.01,2013-02-16 10:22:00,
2013-02-16 05:27:00,34.3,21.1,29.89,WNW,302,0.0,0.0,58,0.00,,SKC,0.00,VWS V14.01,2013-02-16 10:27:00,
2013-02-16 05:32:00,34.1,20.9,29.88,WNW,302,0.0,0.0,58,0.00,,SKC,0.00,VWS V14.01,2013-02-16 10:32:00,
2013-02-16 05:37:00,34.1,20.9,29.88,WNW,302,0.0,0.0,58,0.00,,SKC,0.00,VWS V14.01,2013-02-16 10:37:00,
2013-02-16 05:42:00,34.1,20.9,29.88,West,278,0.0,0.0,58,0.00,,SKC,0.00,VWS V14.01,2013-02-16 10:42:00,
2013-02-16 05:47:00,34.1,20.5,29.88,West,278,0.0,0.0,57,0.00,,SKC,0.00,VWS V14.01,2013-02-16 10:47:00,
2013-02-16 05:52:00,34.3,19.8,29.88,West,278,0.0,0.0,55,0.00,,SKC,0.00,VWS V14.01,2013-02-16 10:52:00,
2013-02-16 05:57:00,34.3,19.8,29.88,West,278,0.0,0.0,55,0.00,,SKC,0.00,VWS V14.01,2013-02-16 10:57:00,
2013-02-16 06:02:00,34.3,19.8,29.88,West,278,0.0,0.0,55,0.00,,SKC,0.00,VWS V14.01,2013-02-16 11:02:00,
2013-02-16 06:07:00,34.3,20.2,29.88,West,278,0.0,0.0,56,0.00,,SKC,0.00,VWS V14.01,2013-02-16 11:07:00,
2013-02-16 06:12:00,34.1,20.5,29.88,West,278,0.0,0.0,57,0.00,,SKC,0.00,VWS V14.01,2013-02-16 11:12:00,
2013-02-16 06:17:00,34.0,20.8,29.90,West,278,0.0,0.0,58,0.00,,SKC,0.00,VWS V14.01,2013-02-16 11:17:00,
2013-02-16 06:22:00,33.8,20.6,29.90,West,278,0.0,0.0,58,0.00,,SKC,0.00,VWS V14.01,2013-02-16 11:22:00,
2013-02-16 06:27:00,33.8,20.2,29.90,West,278,0.0,0.0,57,0.00,,SKC,0.00,VWS V14.01,2013-02-16 11:27:00,
2013-02-16 06:32:00,33.8,20.6,29.90,West,278,0.0,0.0,58,0.00,,SKC,0.00,VWS V14.01,2013-02-16 11:32:00,
2013-02-16 06:37:00,33.7,20.5,29.90,West,278,0.0,0.0,58,0.00,,SKC,0.00,VWS V14.01,2013-02-16 11:37:00,
2013-02-16 06:42:00,33.7,20.9,29.90,West,278,0.0,0.0,59,0.00,,SKC,0.00,VWS V14.01,2013-02-16 11:42:00,
2013-02-16 06:47:00,33.5,20.7,29.90,West,278,0.0,0.0,59,0.00,,SKC,0.00,VWS V14.01,2013-02-16 11:47:00,
2013-02-16 06:52:00,33.5,19.9,29.90,West,278,0.0,0.0,57,0.00,,SKC,0.00,VWS V14.01,2013-02-16 11:52:00,
2013-02-16 06:57:00,33.5,21.5,29.90,West,278,0.0,0.0,61,0.00,,SKC,0.00,VWS V14.01,2013-02-16 11:57:00,
2013-02-16 07:02:00,33.5,20.3,29.90,West,278,0.0,0.0,58,0.00,,SKC,0.00,VWS V14.01,2013-02-16 12:02:00,
2013-02-16 07:07:00,33.5,20.7,29.90,West,278,0.0,0.0,59,0.00,,SKC,0.00,VWS V14.01,2013-02-16 12:07:00,
2013-02-16 07:12:00,33.4,20.2,29.90,West,278,0.0,0.0,58,0.00,,SKC,0.00,VWS V14.01,2013-02-16 12:12:00,
2013-02-16 07:17:00,33.4,20.2,29.90,West,278,0.0,0.0,58,0.00,,SKC,0.00,VWS V14.01,2013-02-16 12:17:00,
2013-02-16 07:22:00,33.4,21.4,29.90,West,278,0.0,0.0,61,0.00,,SKC,0.00,VWS V14.01,2013-02-16 12:22:00,
2013-02-16 07:27:00,33.2,20.8,29.90,West,278,0.0,0.0,60,0.00,,SKC,0.00,VWS V14.01,2013-02-16 12:27:00,
2013-02-16 07:32:00,33.2,20.4,29.90,West,278,0.0,0.0,59,0.00,,SKC,0.00,VWS V14.01,2013-02-16 12:32:00,
2013-02-16 07:37:00,33.2,20.4,29.90,West,278,0.0,0.0,59,0.00,,SKC,0.00,VWS V14.01,2013-02-16 12:37:00,
2013-02-16 07:42:00,33.4,21.0,29.90,West,278,0.0,0.0,60,0.00,,SKC,0.00,VWS V14.01,2013-02-16 12:42:00,
2013-02-16 07:47:00,33.4,20.6,29.90,West,278,0.0,0.0,59,0.00,,SKC,0.00,VWS V14.01,2013-02-16 12:47:00,
2013-02-16 07:52:00,33.4,21.0,29.90,West,278,0.0,0.0,60,0.00,,SKC,0.00,VWS V14.01,2013-02-16 12:52:00,
2013-02-16 07:57:00,33.4,21.4,29.90,West,278,0.0,0.0,61,0.00,,SKC,0.00,VWS V14.01,2013-02-16 12:57:00,
2013-02-16 08:02:00,33.5,22.3,29.89,West,278,0.0,0.0,63,0.00,,SKC,0.00,VWS V14.01,2013-02-16 13:02:00,
2013-02-16 08:07:00,33.5,23.0,29.89,West,278,0.0,0.0,65,0.00,,SKC,0.00,VWS V14.01,2013-02-16 13:07:00,
2013-02-16 08:12:00,33.5,23.0,29.89,West,278,0.0,0.0,65,0.00,,SKC,0.00,VWS V14.01,2013-02-16 13:12:00,
2013-02-16 08:17:00,33.7,23.2,29.89,West,278,0.0,0.0,65,0.00,,SKC,0.00,VWS V14.01,2013-02-16 13:17:00,
2013-02-16 08:22:00,33.8,22.9,29.89,West,278,0.0,0.0,64,0.00,,SKC,0.00,VWS V14.01,2013-02-16 13:22:00,
2013-02-16 08:27:00,34.1,23.6,29.89,West,278,0.0,0.0,65,0.00,,SKC,0.00,VWS V14.01,2013-02-16 13:27:00,
2013-02-16 08:32:00,34.3,22.3,29.89,West,278,0.0,0.0,61,0.00,,SKC,0.00,VWS V14.01,2013-02-16 13:32:00,
2013-02-16 08:37:00,34.3,21.9,29.89,West,278,0.0,0.0,60,0.00,,SKC,0.00,VWS V14.01,2013-02-16 13:37:00,
2013-02-16 08:42:00,34.3,22.3,29.89,West,278,0.0,0.0,61,0.00,,SKC,0.00,VWS V14.01,2013-02-16 13:42:00,
2013-02-16 08:47:00,34.3,22.6,29.89,West,278,0.0,0.0,62,0.00,,SKC,0.00,VWS V14.01,2013-02-16 13:47:00,
2013-02-16 08:52:00,34.3,22.6,29.89,West,278,0.0,0.0,62,0.00,,SKC,0.00,VWS V14.01,2013-02-16 13:52:00,
2013-02-16 08:57:00,34.3,23.0,29.89,West,278,0.0,0.0,63,0.00,,SKC,0.00,VWS V14.01,2013-02-16 13:57:00,
2013-02-16 09:02:00,34.3,22.6,29.89,West,278,0.0,0.0,62,0.00,,SKC,0.00,VWS V14.01,2013-02-16 14:02:00,
2013-02-16 09:07:00,34.3,22.3,29.89,West,278,0.0,0.0,61,0.00,,SKC,0.00,VWS V14.01,2013-02-16 14:07:00,
2013-02-16 09:12:00,34.3,22.3,29.89,West,278,0.0,0.0,61,0.00,,SKC,0.00,VWS V14.01,2013-02-16 14:12:00,
2013-02-16 09:17:00,34.3,23.0,29.88,West,278,0.0,0.0,63,0.00,,SKC,0.00,VWS V14.01,2013-02-16 14:17:00,
2013-02-16 09:22:00,34.4,22.4,29.88,WNW,291,0.0,0.0,61,0.00,,SKC,0.00,VWS V14.01,2013-02-16 14:22:00,
2013-02-16 09:27:00,34.3,22.6,29.88,WNW,293,0.0,0.0,62,0.00,,SKC,0.00,VWS V14.01,2013-02-16 14:27:00,
2013-02-16 09:32:00,34.4,22.4,29.88,WNW,293,0.0,0.0,61,0.00,,SKC,0.00,VWS V14.01,2013-02-16 14:32:00,
2013-02-16 09:37:00,34.4,22.7,29.88,WNW,293,0.0,0.0,62,0.00,,SKC,0.00,VWS V14.01,2013-02-16 14:37:00,
2013-02-16 09:42:00,34.4,22.0,29.88,WNW,294,0.0,0.0,60,0.00,,SKC,0.00,VWS V14.01,2013-02-16 14:42:00,
2013-02-16 09:47:00,34.4,21.6,29.89,WNW,292,0.0,0.0,59,0.00,,SKC,0.00,VWS V14.01,2013-02-16 14:47:00,
2013-02-16 09:52:00,34.4,21.6,29.89,WNW,297,0.0,0.0,59,0.00,,SKC,0.00,VWS V14.01,2013-02-16 14:52:00,
2013-02-16 09:57:00,34.4,22.0,29.89,WNW,298,0.0,0.0,60,0.00,,SKC,0.00,VWS V14.01,2013-02-16 14:57:00,
2013-02-16 10:02:00,34.6,22.2,29.89,WNW,297,0.0,0.0,60,0.00,,SKC,0.00,VWS V14.01,2013-02-16 15:02:00,
2013-02-16 10:07:00,34.7,22.2,29.89,WNW,297,0.0,0.0,60,0.00,,SKC,0.00,VWS V14.01,2013-02-16 15:07:00,
2013-02-16 10:12:00,34.7,22.2,29.89,WNW,299,0.0,0.0,60,0.00,,SKC,0.00,VWS V14.01,2013-02-16 15:12:00,
2013-02-16 10:17:00,34.7,21.9,29.89,WNW,300,0.0,0.0,59,0.00,,SKC,0.00,VWS V14.01,2013-02-16 15:17:00,
2013-02-16 10:22:00,34.7,21.9,29.89,WNW,300,0.0,0.0,59,0.00,,SKC,0.00,VWS V14.01,2013-02-16 15:22:00,
2013-02-16 10:27:00,34.7,22.2,29.89,WNW,301,0.0,0.0,60,0.00,,SKC,0.00,VWS V14.01,2013-02-16 15:27:00,
2013-02-16 10:32:00,34.7,21.9,29.88,WNW,302,0.0,0.0,59,0.00,,SKC,0.00,VWS V14.01,2013-02-16 15:32:00,
2013-02-16 10:37:00,34.7,22.6,29.88,WNW,302,0.0,0.0,61,0.00,,SKC,0.00,VWS V14.01,2013-02-16 15:37:00,
2013-02-16 10:42:00,34.9,22.0,29.88,WNW,302,0.0,0.0,59,0.00,,SKC,0.00,VWS V14.01,2013-02-16 15:42:00,
2013-02-16 10:47:00,35.0,22.1,29.87,WNW,301,0.0,0.0,59,0.00,,SKC,0.00,VWS V14.01,2013-02-16 15:47:00,
2013-02-16 10:52:00,35.5,22.2,29.87,WNW,302,0.0,0.0,58,0.00,,SKC,0.00,VWS V14.01,2013-02-16 15:52:00,
2013-02-16 10:57:00,35.9,23.8,29.87,WNW,302,0.0,0.0,61,0.00,,SKC,0.00,VWS V14.01,2013-02-16 15:57:00,
2013-02-16 11:02:00,36.0,22.7,29.87,WNW,302,0.0,0.0,58,0.00,,SKC,0.00,VWS V14.01,2013-02-16 16:02:00,
2013-02-16 11:07:00,36.0,22.3,29.87,WNW,302,0.0,0.0,57,0.00,,SKC,0.00,VWS V14.01,2013-02-16 16:07:00,
2013-02-16 11:12:00,35.9,22.6,29.87,WNW,302,0.0,0.0,58,0.00,,SKC,0.00,VWS V14.01,2013-02-16 16:12:00,
2013-02-16 11:17:00,35.9,22.6,29.86,WNW,302,0.0,0.0,58,0.00,,SKC,0.00,VWS V14.01,2013-02-16 16:17:00,
2013-02-16 11:22:00,35.9,23.4,29.86,WNW,302,0.0,0.0,60,0.00,,SKC,0.00,VWS V14.01,2013-02-16 16:22:00,
2013-02-16 11:27:00,35.6,21.9,29.86,NNW,345,0.0,0.0,57,0.00,,SKC,0.00,VWS V14.01,2013-02-16 16:27:00,
2013-02-16 11:32:00,35.3,22.4,29.86,NNE,24,0.0,0.0,59,0.00,,SKC,0.00,VWS V14.01,2013-02-16 16:32:00,
2013-02-16 11:37:00,35.3,22.4,29.86,NNE,25,0.0,0.0,59,0.00,,SKC,0.00,VWS V14.01,2013-02-16 16:37:00,
2013-02-16 11:42:00,35.5,23.0,29.86,NNE,15,0.0,0.0,60,0.00,,SKC,0.00,VWS V14.01,2013-02-16 16:42:00,
2013-02-16 11:47:00,35.6,22.7,29.86,NNW,331,0.0,0.0,59,0.00,,SKC,0.00,VWS V14.01,2013-02-16 16:47:00,
2013-02-16 11:52:00,35.5,22.2,29.86,NNW,331,0.0,0.0,58,0.00,,SKC,0.00,VWS V14.01,2013-02-16 16:52:00,
2013-02-16 11:57:00,35.3,21.6,29.86,NW,323,0.0,0.0,57,0.00,,SKC,0.00,VWS V14.01,2013-02-16 16:57:00,
2013-02-16 12:02:00,35.3,22.0,29.85,NNW,340,0.0,0.0,58,0.00,,SKC,0.00,VWS V14.01,2013-02-16 17:02:00,
2013-02-16 12:07:00,35.3,20.8,29.85,NW,325,0.0,0.0,55,0.00,,SKC,0.00,VWS V14.01,2013-02-16 17:07:00,
2013-02-16 12:12:00,35.2,21.1,29.85,NW,321,0.0,0.0,56,0.00,,SKC,0.00,VWS V14.01,2013-02-16 17:12:00,
2013-02-16 12:17:00,35.2,20.7,29.85,NW,321,0.0,0.0,55,0.00,,SKC,0.00,VWS V14.01,2013-02-16 17:17:00,
2013-02-16 12:22:00,35.5,21.0,29.85,NW,321,0.0,0.0,55,0.00,,SKC,0.00,VWS V14.01,2013-02-16 17:22:00,
2013-02-16 12:27:00,35.5,21.4,29.85,NW,320,0.0,0.0,56,0.00,,SKC,0.00,VWS V14.01,2013-02-16 17:27:00,
2013-02-16 12:32:00,35.5,20.5,29.85,NW,304,0.0,0.0,54,0.00,,SKC,0.00,VWS V14.01,2013-02-16 17:32:00,
2013-02-16 12:37:00,35.5,21.4,29.85,NNW,345,0.0,0.0,56,0.00,,SKC,0.00,VWS V14.01,2013-02-16 17:37:00,
2013-02-16 12:42:00,35.3,20.3,29.85,WNW,295,0.0,0.0,54,0.00,,SKC,0.00,VWS V14.01,2013-02-16 17:42:00,
2013-02-16 12:47:00,34.9,20.4,29.85,North,358,0.0,0.0,55,0.00,,SKC,0.00,VWS V14.01,2013-02-16 17:47:00,
2013-02-16 12:52:00,34.6,21.0,29.85,NW,324,0.0,0.0,57,0.00,,SKC,0.00,VWS V14.01,2013-02-16 17:52:00,
2013-02-16 12:57:00,34.4,20.8,29.85,NW,319,0.0,0.0,57,0.00,,SKC,0.00,VWS V14.01,2013-02-16 17:57:00,
2013-02-16 13:02:00,34.4,21.2,29.83,NNW,340,0.0,0.0,58,0.00,,SKC,0.00,VWS V14.01,2013-02-16 18:02:00,
2013-02-16 13:07:00,34.6,22.5,29.83,WSW,257,0.0,0.0,61,0.00,,SKC,0.00,VWS V14.01,2013-02-16 18:07:00,
2013-02-16 13:12:00,34.4,22.0,29.83,NW,309,0.0,0.0,60,0.00,,SKC,0.00,VWS V14.01,2013-02-16 18:12:00,
2013-02-16 13:17:00,34.1,20.9,29.83,WNW,295,0.0,0.0,58,0.00,,SKC,0.00,VWS V14.01,2013-02-16 18:17:00,
2013-02-16 13:22:00,34.0,22.0,29.83,North,349,0.0,0.0,61,0.00,,SKC,0.00,VWS V14.01,2013-02-16 18:22:00,
2013-02-16 13:27:00,34.0,22.4,29.83,North,349,0.0,0.0,62,0.00,,SKC,0.00,VWS V14.01,2013-02-16 18:27:00,
2013-02-16 13:32:00,34.0,22.4,29.82,North,356,0.0,0.0,62,0.00,,SKC,0.00,VWS V14.01,2013-02-16 18:32:00,
2013-02-16 13:37:00,34.3,23.0,29.82,NW,307,0.0,0.0,63,0.00,,SKC,0.00,VWS V14.01,2013-02-16 18:37:00,
2013-02-16 13:42:00,34.3,21.5,29.82,NNW,335,0.0,0.0,59,0.00,,SKC,0.00,VWS V14.01,2013-02-16 18:42:00,
2013-02-16 13:47:00,34.4,21.6,29.82,North,4,0.0,0.0,59,0.00,,SKC,0.00,VWS V14.01,2013-02-16 18:47:00,
2013-02-16 13:52:00,34.6,21.4,29.82,NNW,336,0.0,0.0,58,0.00,,SKC,0.00,VWS V14.01,2013-02-16 18:52:00,
2013-02-16 13:57:00,34.9,22.4,29.82,NW,323,0.0,0.0,60,0.00,,SKC,0.00,VWS V14.01,2013-02-16 18:57:00,
2013-02-16 14:02:00,35.2,22.3,29.82,NW,323,0.0,0.0,59,0.00,,SKC,0.00,VWS V14.01,2013-02-16 19:02:00,
2013-02-16 14:07:00,35.2,20.7,29.82,WNW,303,0.0,0.0,55,0.00,,SKC,0.00,VWS V14.01,2013-02-16 19:07:00,
2013-02-16 14:12:00,35.0,20.5,29.82,NW,306,0.0,0.0,55,0.00,,SKC,0.00,VWS V14.01,2013-02-16 19:12:00,
2013-02-16 14:17:00,35.5,21.0,29.81,NNW,335,0.0,0.0,55,0.00,,SKC,0.00,VWS V14.01,2013-02-16 19:17:00,
2013-02-16 14:22:00,35.8,19.9,29.81,North,1,0.0,0.0,52,0.00,,SKC,0.00,VWS V14.01,2013-02-16 19:22:00,
2013-02-16 14:27:00,35.8,19.5,29.81,NNW,347,0.0,0.0,51,0.00,,SKC,0.00,VWS V14.01,2013-02-16 19:27:00,
2013-02-16 14:32:00,35.0,20.9,29.81,NW,314,0.0,0.0,56,0.00,,SKC,0.00,VWS V14.01,2013-02-16 19:32:00,
2013-02-16 14:37:00,33.5,21.1,29.81,NNW,336,0.0,0.0,60,0.00,,SKC,0.00,VWS V14.01,2013-02-16 19:37:00,
2013-02-16 14:42:00,33.5,20.3,29.81,WNW,298,0.0,0.0,58,0.00,,SKC,0.00,VWS V14.01,2013-02-16 19:42:00,
2013-02-16 14:47:00,33.7,20.9,29.80,North,349,0.0,0.0,59,0.00,,SKC,0.00,VWS V14.01,2013-02-16 19:47:00,
2013-02-16 14:52:00,34.1,19.2,29.80,NW,312,0.0,0.0,54,0.00,,SKC,0.00,VWS V14.01,2013-02-16 19:52:00,
2013-02-16 14:57:00,34.6,19.2,29.80,NW,318,0.0,0.0,53,0.00,,SKC,0.00,VWS V14.01,2013-02-16 19:57:00,
2013-02-16 15:02:00,34.4,19.5,29.79,NW,324,0.0,0.0,54,0.00,,SKC,0.00,VWS V14.01,2013-02-16 20:02:00,
2013-02-16 15:07:00,33.8,19.4,29.79,WNW,303,0.0,0.0,55,0.00,,SKC,0.00,VWS V14.01,2013-02-16 20:07:00,
2013-02-16 15:12:00,33.7,18.0,29.79,WNW,301,0.0,0.0,52,0.00,,SKC,0.00,VWS V14.01,2013-02-16 20:12:00,
2013-02-16 15:17:00,33.7,17.0,29.79,North,355,0.0,0.0,50,0.00,,SKC,0.00,VWS V14.01,2013-02-16 20:17:00,
2013-02-16 15:22:00,33.7,16.1,29.79,NW,318,0.0,0.0,48,0.00,,SKC,0.00,VWS V14.01,2013-02-16 20:22:00,
2013-02-16 15:27:00,33.5,16.4,29.79,NW,325,0.0,0.0,49,0.00,,SKC,0.00,VWS V14.01,2013-02-16 20:27:00,
2013-02-16 15:32:00,33.4,15.4,29.79,NW,326,0.0,0.0,47,0.00,,SKC,0.00,VWS V14.01,2013-02-16 20:32:00,
2013-02-16 15:37:00,33.2,15.6,29.79,WNW,300,0.0,0.0,48,0.00,,SKC,0.00,VWS V14.01,2013-02-16 20:37:00,
2013-02-16 15:42:00,33.2,15.2,29.79,WSW,243,0.0,0.0,47,0.00,,SKC,0.00,VWS V14.01,2013-02-16 20:42:00,
2013-02-16 15:47:00,33.5,14.9,29.80,West,266,0.0,0.0,46,0.00,,SKC,0.00,VWS V14.01,2013-02-16 20:47:00,
2013-02-16 15:52:00,33.8,15.7,29.80,NNE,12,0.0,0.0,47,0.00,,SKC,0.00,VWS V14.01,2013-02-16 20:52:00,
2013-02-16 15:57:00,33.7,16.1,29.80,NW,316,0.0,0.0,48,0.00,,SKC,0.00,VWS V14.01,2013-02-16 20:57:00,
2013-02-16 16:02:00,33.4,15.4,29.81,NW,311,0.0,0.0,47,0.00,,SKC,0.00,VWS V14.01,2013-02-16 21:02:00,
2013-02-16 16:07:00,33.1,14.6,29.81,NW,314,0.0,0.0,46,0.00,,SKC,0.00,VWS V14.01,2013-02-16 21:07:00,
2013-02-16 16:12:00,32.8,15.8,29.81,NNW,335,0.0,0.0,49,0.00,,SKC,0.00,VWS V14.01,2013-02-16 21:12:00,
2013-02-16 16:17:00,32.9,14.4,29.82,NW,311,0.0,0.0,46,0.00,,SKC,0.00,VWS V14.01,2013-02-16 21:17:00,
2013-02-16 16:22:00,32.9,13.9,29.82,West,271,0.0,0.0,45,0.00,,SKC,0.00,VWS V14.01,2013-02-16 21:22:00,
2013-02-16 16:27:00,32.5,12.0,29.82,North,1,0.0,0.0,42,0.00,,SKC,0.00,VWS V14.01,2013-02-16 21:27:00,
2013-02-16 16:32:00,32.4,11.9,29.83,West,277,0.0,0.0,42,0.00,,SKC,0.00,VWS V14.01,2013-02-16 21:32:00,
2013-02-16 16:37:00,32.4,12.9,29.83,West,279,0.0,0.0,44,0.00,,SKC,0.00,VWS V14.01,2013-02-16 21:37:00,
2013-02-16 16:42:00,32.4,11.3,29.83,NNW,336,0.0,0.0,41,0.00,,SKC,0.00,VWS V14.01,2013-02-16 21:42:00,
2013-02-16 16:47:00,32.4,11.3,29.83,WNW,282,0.0,0.0,41,0.00,,SKC,0.00,VWS V14.01,2013-02-16 21:47:00,
2013-02-16 16:52:00,32.7,11.1,29.83,West,268,0.0,0.0,40,0.00,,SKC,0.00,VWS V14.01,2013-02-16 21:52:00,
2013-02-16 16:57:00,32.7,11.1,29.83,WNW,298,0.0,0.0,40,0.00,,SKC,0.00,VWS V14.01,2013-02-16 21:57:00,
2013-02-16 17:02:00,32.1,10.5,29.83,NNW,339,0.0,0.0,40,0.00,,SKC,0.00,VWS V14.01,2013-02-16 22:02:00,
2013-02-16 17:07:00,31.8,10.2,29.83,NW,319,0.0,0.0,40,0.00,,SKC,0.00,VWS V14.01,2013-02-16 22:07:00,
2013-02-16 17:12:00,31.3,9.2,29.83,NNW,338,0.0,0.0,39,0.00,,SKC,0.00,VWS V14.01,2013-02-16 22:12:00,
2013-02-16 17:17:00,31.2,9.7,29.84,NW,304,0.0,0.0,40,0.00,,SKC,0.00,VWS V14.01,2013-02-16 22:17:00,
2013-02-16 17:22:00,31.0,9.5,29.84,WNW,286,0.0,0.0,40,0.00,,SKC,0.00,VWS V14.01,2013-02-16 22:22:00,
2013-02-16 17:27:00,30.9,8.9,29.84,WNW,302,0.0,0.0,39,0.00,,SKC,0.00,VWS V14.01,2013-02-16 22:27:00,
2013-02-16 17:32:00,30.7,8.7,29.85,NW,305,0.0,0.0,39,0.00,,SKC,0.00,VWS V14.01,2013-02-16 22:32:00,
2013-02-16 17:37:00,30.7,8.7,29.85,NW,325,0.0,0.0,39,0.00,,SKC,0.00,VWS V14.01,2013-02-16 22:37:00,
2013-02-16 17:42:00,30.6,10.8,29.85,North,358,0.0,0.0,43,0.00,,SKC,0.00,VWS V14.01,2013-02-16 22:42:00,
2013-02-16 17:47:00,30.6,10.8,29.85,NW,317,0.0,0.0,43,0.00,,SKC,0.00,VWS V14.01,2013-02-16 22:47:00,
2013-02-16 17:52:00,30.6,9.7,29.85,ESE,105,0.0,0.0,41,0.00,,SKC,0.00,VWS V14.01,2013-02-16 22:52:00,
2013-02-16 17:57:00,30.4,10.1,29.85,SW,236,0.0,0.0,42,0.00,,SKC,0.00,VWS V14.01,2013-02-16 22:57:00,
2013-02-16 18:02:00,30.3,10.5,29.85,NNW,332,0.0,0.0,43,0.00,,SKC,0.00,VWS V14.01,2013-02-16 23:02:00,
2013-02-16 18:07:00,30.1,10.3,29.85,NNW,329,0.0,0.0,43,0.00,,SKC,0.00,VWS V14.01,2013-02-16 23:07:00,
2013-02-16 18:12:00,30.0,10.7,29.85,NNW,348,0.0,0.0,44,0.00,,SKC,0.00,VWS V14.01,2013-02-16 23:12:00,
2013-02-16 18:17:00,29.7,11.5,29.86,West,269,0.0,0.0,46,0.00,,SKC,0.00,VWS V14.01,2013-02-16 23:17:00,
2013-02-16 18:22:00,29.5,11.8,29.86,West,270,0.0,0.0,47,0.00,,SKC,0.00,VWS V14.01,2013-02-16 23:22:00,
2013-02-16 18:27:00,29.4,11.2,29.86,West,263,0.0,0.0,46,0.00,,SKC,0.00,VWS V14.01,2013-02-16 23:27:00,
2013-02-16 18:32:00,29.3,11.6,29.87,West,261,0.0,0.0,47,0.00,,SKC,0.00,VWS V14.01,2013-02-16 23:32:00,
2013-02-16 18:37:00,29.1,11.4,29.87,North,354,0.0,0.0,47,0.00,,SKC,0.00,VWS V14.01,2013-02-16 23:37:00,
2013-02-16 18:42:00,28.8,12.5,29.87,ESE,108,0.0,0.0,50,0.00,,SKC,0.00,VWS V14.01,2013-02-16 23:42:00,
2013-02-16 18:47:00,28.7,10.6,29.88,SE,143,0.0,0.0,46,0.00,,SKC,0.00,VWS V14.01,2013-02-16 23:47:00,
2013-02-16 18:52:00,28.7,10.1,29.88,SW,221,0.0,0.0,45,0.00,,SKC,0.00,VWS V14.01,2013-02-16 23:52:00,
2013-02-16 18:57:00,28.8,9.1,29.88,NNW,346,0.0,0.0,43,0.00,,SKC,0.00,VWS V14.01,2013-02-16 23:57:00,
2013-02-16 19:02:00,29.0,9.3,29.89,NW,322,0.0,0.0,43,0.00,,SKC,0.00,VWS V14.01,2013-02-17 00:02:00,
2013-02-16 19:07:00,29.0,11.3,29.89,North,0,0.0,0.0,47,0.00,,SKC,0.00,VWS V14.01,2013-02-17 00:07:00,
2013-02-16 19:12:00,29.0,10.8,29.89,WNW,282,0.0,0.0,46,0.00,,SKC,0.00,VWS V14.01,2013-02-17 00:12:00,
2013-02-16 19:17:00,28.8,10.1,29.89,WNW,282,0.0,0.0,45,0.00,,SKC,0.00,VWS V14.01,2013-02-17 00:17:00,
2013-02-16 19:22:00,28.7,12.0,29.89,West,278,0.0,0.0,49,0.00,,SKC,0.00,VWS V14.01,2013-02-17 00:22:00,
2013-02-16 19:27:00,28.7,10.1,29.89,West,278,0.0,0.0,45,0.00,,SKC,0.00,VWS V14.01,2013-02-17 00:27:00,
2013-02-16 19:32:00,28.7,10.1,29.90,West,278,0.0,0.0,45,0.00,,SKC,0.00,VWS V14.01,2013-02-17 00:32:00,
2013-02-16 19:37:00,28.5,11.3,29.90,West,279,0.0,0.0,48,0.00,,SKC,0.00,VWS V14.01,2013-02-17 00:37:00,
2013-02-16 19:42:00,28.4,11.2,29.90,WNW,285,0.0,0.0,48,0.00,,SKC,0.00,VWS V14.01,2013-02-17 00:42:00,
2013-02-16 19:47:00,28.2,11.5,29.90,WNW,285,0.0,0.0,49,0.00,,SKC,0.00,VWS V14.01,2013-02-17 00:47:00,
2013-02-16 19:52:00,28.1,12.8,29.90,WNW,285,0.0,0.0,52,0.00,,SKC,0.00,VWS V14.01,2013-02-17 00:52:00,
2013-02-16 19:57:00,27.9,12.1,29.90,WNW,285,0.0,0.0,51,0.00,,SKC,0.00,VWS V14.01,2013-02-17 00:57:00,
2013-02-16 20:02:00,27.9,12.6,29.91,WNW,283,0.0,0.0,52,0.00,,SKC,0.00,VWS V14.01,2013-02-17 01:02:00,
2013-02-16 20:07:00,27.8,11.1,29.91,NW,309,0.0,0.0,49,0.00,,SKC,0.00,VWS V14.01,2013-02-17 01:07:00,
2013-02-16 20:12:00,27.9,11.2,29.91,NW,307,0.0,0.0,49,0.00,,SKC,0.00,VWS V14.01,2013-02-17 01:12:00,
2013-02-16 20:17:00,27.9,10.8,29.91,NW,309,0.0,0.0,48,0.00,,SKC,0.00,VWS V14.01,2013-02-17 01:17:00,
2013-02-16 20:22:00,27.9,11.2,29.91,WNW,288,0.0,0.0,49,0.00,,SKC,0.00,VWS V14.01,2013-02-17 01:22:00,
2013-02-16 20:27:00,27.9,12.6,29.91,NW,307,0.0,0.0,52,0.00,,SKC,0.00,VWS V14.01,2013-02-17 01:27:00,
2013-02-16 20:32:00,27.9,12.6,29.92,WSW,249,0.0,0.0,52,0.00,,SKC,0.00,VWS V14.01,2013-02-17 01:32:00,
2013-02-16 20:37:00,27.8,12.9,29.92,WNW,293,0.0,0.0,53,0.00,,SKC,0.00,VWS V14.01,2013-02-17 01:37:00,
2013-02-16 20:42:00,27.6,13.1,29.92,WNW,283,0.0,0.0,54,0.00,,SKC,0.00,VWS V14.01,2013-02-17 01:42:00,
2013-02-16 20:47:00,27.5,14.3,29.92,WNW,283,0.0,0.0,57,0.00,,SKC,0.00,VWS V14.01,2013-02-17 01:47:00,
2013-02-16 20:52:00,27.2,14.4,29.92,WNW,290,0.0,0.0,58,0.00,,SKC,0.00,VWS V14.01,2013-02-17 01:52:00,
2013-02-16 20:57:00,27.0,15.0,29.92,NNW,338,0.0,0.0,60,0.00,,SKC,0.00,VWS V14.01,2013-02-17 01:57:00,
2013-02-16 21:02:00,26.7,15.8,29.92,WNW,287,0.0,0.0,63,0.00,,SKC,0.00,VWS V14.01,2013-02-17 02:02:00,
2013-02-16 21:07:00,26.7,15.8,29.92,NW,325,0.0,0.0,63,0.00,,SKC,0.00,VWS V14.01,2013-02-17 02:07:00,
2013-02-16 21:12:00,26.9,16.4,29.92,NNW,344,0.0,0.0,64,0.00,,SKC,0.00,VWS V14.01,2013-02-17 02:12:00,
2013-02-16 21:17:00,26.6,17.8,29.93,WNW,286,0.0,0.0,69,0.00,,SKC,0.00,VWS V14.01,2013-02-17 02:17:00,
2013-02-16 21:21:00,26.0,18.9,29.93,NW,326,0.0,0.0,74,0.00,,SKC,0.00,VWS V14.01,2013-02-17 02:21:00,
2013-02-16 21:26:00,25.6,19.4,29.93,WNW,290,0.0,0.0,77,0.00,,SKC,0.00,VWS V14.01,2013-02-17 02:26:00,
2013-02-16 21:31:00,25.3,17.2,29.94,WSW,253,0.0,0.0,71,0.00,,SKC,0.00,VWS V14.01,2013-02-17 02:31:00,
2013-02-16 21:36:00,25.4,16.3,29.94,WNW,292,0.0,0.0,68,0.00,,SKC,0.00,VWS V14.01,2013-02-17 02:36:00,
2013-02-16 21:41:00,25.4,17.6,29.94,WNW,292,0.0,0.0,72,0.00,,SKC,0.00,VWS V14.01,2013-02-17 02:41:00,
2013-02-16 21:46:00,25.4,17.6,29.94,WNW,293,0.0,0.0,72,0.00,,SKC,0.00,VWS V14.01,2013-02-17 02:46:00,
2013-02-16 21:51:00,25.4,17.6,29.94,WNW,293,0.0,0.0,72,0.00,,SKC,0.00,VWS V14.01,2013-02-17 02:51:00,
2013-02-16 21:56:00,25.4,17.3,29.94,WNW,293,0.0,0.0,71,0.00,,SKC,0.00,VWS V14.01,2013-02-17 02:56:00,
2013-02-16 22:01:00,25.4,17.0,29.94,WNW,286,0.0,0.0,70,0.00,,SKC,0.00,VWS V14.01,2013-02-17 03:01:00,
2013-02-16 22:06:00,25.4,16.3,29.94,WSW,252,0.0,0.0,68,0.00,,SKC,0.00,VWS V14.01,2013-02-17 03:06:00,
2013-02-16 22:11:00,25.4,16.3,29.94,WNW,282,0.0,0.0,68,0.00,,SKC,0.00,VWS V14.01,2013-02-17 03:11:00,
2013-02-16 22:16:00,25.4,14.9,29.94,West,262,0.0,0.0,64,0.00,,SKC,0.00,VWS V14.01,2013-02-17 03:16:00,
2013-02-16 22:21:00,25.4,15.3,29.94,West,268,0.0,0.0,65,0.00,,SKC,0.00,VWS V14.01,2013-02-17 03:21:00,
2013-02-16 22:26:00,25.3,15.6,29.94,West,266,0.0,0.0,66,0.00,,SKC,0.00,VWS V14.01,2013-02-17 03:26:00,
2013-02-16 22:31:00,25.3,15.6,29.95,West,268,0.0,0.0,66,0.00,,SKC,0.00,VWS V14.01,2013-02-17 03:31:00,
2013-02-16 22:36:00,25.3,15.6,29.95,WNW,287,0.0,0.0,66,0.00,,SKC,0.00,VWS V14.01,2013-02-17 03:36:00,
2013-02-16 22:41:00,25.4,12.3,29.95,NW,324,0.0,0.0,57,0.00,,SKC,0.00,VWS V14.01,2013-02-17 03:41:00,
2013-02-16 22:46:00,25.7,13.4,29.94,NW,305,0.0,0.0,59,0.00,,SKC,0.00,VWS V14.01,2013-02-17 03:46:00,
2013-02-16 22:51:00,25.7,14.9,29.94,NW,304,0.0,0.0,63,0.00,,SKC,0.00,VWS V14.01,2013-02-17 03:51:00,
2013-02-16 22:56:00,25.6,13.3,29.94,West,273,0.0,0.0,59,0.00,,SKC,0.00,VWS V14.01,2013-02-17 03:56:00,
2013-02-16 23:01:00,25.6,13.7,29.95,WNW,290,0.0,0.0,60,0.00,,SKC,0.00,VWS V14.01,2013-02-17 04:01:00,
2013-02-16 23:06:00,25.4,14.2,29.95,SW,224,0.0,0.0,62,0.00,,SKC,0.00,VWS V14.01,2013-02-17 04:06:00,
2013-02-16 23:11:00,25.4,14.6,29.95,WSW,255,0.0,0.0,63,0.00,,SKC,0.00,VWS V14.01,2013-02-17 04:11:00,
2013-02-16 23:16:00,25.3,15.2,29.95,West,262,0.0,0.0,65,0.00,,SKC,0.00,VWS V14.01,2013-02-17 04:16:00,
2013-02-16 23:21:00,25.0,15.3,29.95,WNW,284,0.0,0.0,66,0.00,,SKC,0.00,VWS V14.01,2013-02-17 04:21:00,
2013-02-16 23:26:00,24.7,16.6,29.95,WNW,296,0.0,0.0,71,0.00,,SKC,0.00,VWS V14.01,2013-02-17 04:26:00,
2013-02-16 23:31:00,24.2,16.8,29.96,North,1,0.0,0.0,73,0.00,,SKC,0.00,VWS V14.01,2013-02-17 04:31:00,
2013-02-16 23:36:00,23.9,17.1,29.96,North,1,0.0,0.0,75,0.00,,SKC,0.00,VWS V14.01,2013-02-17 04:36:00,
2013-02-16 23:41:00,23.8,18.0,29.96,North,1,0.0,0.0,78,0.00,,SKC,0.00,VWS V14.01,2013-02-17 04:41:00,
2013-02-16 23:46:00,23.6,18.4,29.96,North,1,0.0,0.0,80,0.00,,SKC,0.00,VWS V14.01,2013-02-17 04:46:00,
2013-02-16 23:51:00,23.5,17.1,29.96,WNW,285,0.0,0.0,76,0.00,,SKC,0.00,VWS V14.01,2013-02-17 04:51:00,
2013-02-16 23:56:00,24.2,14.1,29.96,NNW,346,0.0,0.0,65,0.00,,SKC,0.00,VWS V14.01,2013-02-17 04:56:00,